Regional Weather Roundup
Issued by NWS Goodland, KS

Home | Current Version | Previous Version | Text Only | Print | Product List | Glossary Off
Versions: 1 2 3 4 5 6 7 8 9 10 11 12 13 14 15 16 17 18 19 20 21 22 23 24 25 26 27 28 29 30 31 32 33 34 35 36 37 38 39 40 41 42 43 44 45 46 47 48 49 50

000
ASUS43 KGLD 181659
RWRGLD

GOODLAND FORECAST AREA HOURLY WEATHER ROUNDUP
NATIONAL WEATHER SERVICE GOODLAND KS
1100 AM MDT THU SEP 18 2014

...OFFICIAL OBSERVATIONS...

CITY           SKY/WX    TMP DP  RH WIND       PRES   REMARKS
GOODLAND KS    SUNNY     70  62  76 VRB5      30.01S
HILL CITY KS   CLOUDY    65  64  97 E7        29.98S FOG
IMPERIAL NEB   CLOUDY    65  63  93 SE10      30.00S FOG
MCCOOK NEB     CLOUDY    64  63  96 SE10      29.99S FOG
AKRON CO       SUNNY    N/A N/A N/A MISG      30.03F
BURLINGTON CO  SUNNY     72  60  66 VRB6      30.02F
LIMON CO       SUNNY     81  40  23 S5        30.07S
$$

...UNOFFICIAL OBSERVATIONS...

CITY           SKY/WX    TMP DP  RH WIND       PRES   REMARKS
COLBY KS       CLOUDY    66  66 100 SE10      30.01  FOG
GOVE KS          N/A     68  32  26 MISG        N/A
NORTON KS      CLOUDY    63  59  88 E9        29.98  FOG
SHARON SPRINGS   N/A     66  65  97 CALM        N/A
WAKEENEY KS      N/A     66  66  97 MISG        N/A
TRENTON NEB      N/A     64  32  30 SE10        N/A
YUMA CO          N/A     69  66  91 E7          N/A
$$



USA.gov is the U.S. government's official web portal to all federal, state and local government web resources and services.